Wind_Speed
15 13 10 7 7 7 6 5 3 4 4 1 4 6 9 13 13 13 14 16 17 18 19 19 19 19 19 18 17 17 16 15 14 14 13 12 10 8 6 6 5 5 4 3
16 13 11 11 11 8 6 5 4 6 5 1 3 6 6 9 11 13 14 15 16 17 17 18 18 19 18 18 18 18 17 16 15 14 13 12 11 9 8 7 7 6 4 3
16 13 14 13 11 10 6 6 6 6 4 4 6 9 8 8 10 11 13 14 14 15 16 17 18 19 18 18 18 17 17 16 15 15 14 13 12 11 10 9 8 7 5 4
19 17 16 15 13 11 8 9 9 8 4 6 7 11 9 8 8 10 12 13 14 15 15 16 17 18 18 17 17 17 17 16 15 15 13 13 12 11 11 9 9 7 6 5
20 19 18 17 15 14 12 11 10 7 5 6 7 10 12 11 6 8 11 13 14 14 15 16 16 17 17 17 17 17 17 17 16 15 13 12 12 11 11 11 9 8 7 7
22 20 19 18 17 16 13 11 9 6 6 9 9 9 13 11 8 7 10 12 13 13 14 15 16 16 17 16 16 16 17 16 16 15 14 13 12 12 12 11 10 9 9 8
25 23 21 20 19 16 15 11 7 6 8 9 7 9 11 11 10 10 10 11 11 12 13 15 15 16 16 16 16 16 16 16 16 15 15 14 12 12 13 12 11 10 10 9
23 24 23 22 21 17 16 14 11 9 9 9 8 10 10 11 11 11 10 9 10 11 13 14 15 15 16 16 16 16 16 16 16 16 15 15 13 13 13 12 12 12 12 11
18 20 21 23 22 21 17 16 13 11 11 12 10 11 10 11 12 10 9 9 10 10 12 13 14 15 15 16 15 15 15 15 15 16 16 15 15 14 14 13 13 13 12 12
22 18 20 23 23 23 22 17 15 16 14 13 12 12 12 11 11 11 10 11 11 11 12 12 14 14 15 16 15 15 15 15 15 16 16 16 16 15 14 14 14 14 14 14
26 22 20 23 25 23 22 21 20 17 15 12 12 13 14 14 12 13 12 11 11 11 12 12 13 14 14 15 16 16 15 15 15 16 16 16 16 16 14 14 15 15 15 14
29 25 22 23 23 23 23 21 21 20 19 17 13 14 15 13 12 14 14 13 12 12 12 12 13 13 14 15 16 16 16 16 16 16 17 17 18 17 16 15 15 16 15 15
30 30 27 23 22 24 24 23 22 19 19 18 15 17 18 16 15 15 15 14 12 12 12 12 12 13 14 15 15 16 16 17 17 18 18 18 19 19 18 16 17 17 16 16
33 34 31 24 22 22 23 24 24 23 20 19 18 19 19 17 16 17 17 15 13 14 13 12 12 13 14 14 15 16 17 17 18 19 20 20 20 20 19 17 17 17 16 16
34 35 34 30 24 22 22 23 23 25 24 21 20 20 21 22 18 18 18 16 15 15 14 13 13 13 14 15 15 16 17 18 19 20 21 21 21 21 21 20 18 18 17 16
35 35 34 32 29 25 23 23 23 23 24 24 22 21 21 21 22 21 20 18 17 16 15 15 14 14 15 15 16 17 18 19 20 21 22 22 22 22 22 22 20 18 18 18
34 35 35 33 29 28 27 24 24 25 24 24 24 23 23 22 23 23 21 20 19 18 17 16 16 16 16 17 17 18 19 20 21 23 24 24 23 23 23 22 21 20 19 19
34 36 35 33 30 29 28 26 25 25 25 25 24 24 24 25 26 25 23 21 20 19 19 18 17 18 18 18 18 19 20 22 23 24 25 25 25 24 24 22 21 21 21 20
34 35 34 32 30 29 27 26 27 27 27 26 26 27 27 26 26 27 25 23 22 21 20 20 19 19 19 19 20 21 22 23 24 25 25 26 25 25 24 24 22 22 22 21
34 34 35 33 30 28 27 26 25 27 28 28 28 29 29 28 28 28 26 24 23 22 22 21 21 21 21 21 22 22 23 24 25 26 26 26 26 25 25 24 23 23 23 23
35 35 36 35 31 28 27 26 26 28 29 28 28 29 29 30 30 30 27 25 24 22 23 23 23 23 23 24 24 24 25 26 26 26 27 27 27 26 25 25 25 25 25 24
34 35 36 35 32 30 30 28 30 31 31 30 30 29 30 30 30 29 28 27 26 25 24 25 25 25 25 26 26 26 26 26 26 27 28 28 28 28 27 27 27 27 26 26
34 36 35 36 36 35 34 33 33 33 32 31 30 30 30 30 31 30 29 29 28 28 27 27 26 27 27 28 28 27 27 28 28 29 30 30 29 29 29 29 28 27 27 27
36 37 36 37 38 38 37 36 35 34 34 33 31 30 31 31 31 30 30 30 29 29 28 28 28 28 28 29 29 29 29 30 29 30 30 31 31 31 30 29 29 28 28 28
38 38 38 40 40 40 39 38 37 36 35 34 32 32 32 32 31 32 32 32 32 31 30 30 30 30 30 30 31 31 30 30 30 31 32 32 32 32 31 30 30 29 30 30
35 38 39 40 42 42 42 41 39 37 35 34 33 33 33 33 33 33 33 33 33 33 34 34 34 33 33 33 33 31 32 32 33 33 33 33 33 32 32 32 31 30 30 30
Wind_Direction
182 174 180 193 210 193 193 211 203 239 264 308 326 338 351 360 5 6 8 11 13 15 15 17 17 18 17 17 20 20 19 20 20 20 22 21 23 25 24 21 17 6 357 343
188 188 196 204 205 199 191 201 220 261 275 255 289 291 326 344 355 357 1 5 7 9 10 12 14 16 16 15 17 18 19 20 20 21 22 22 21 22 21 18 16 11 5 349
194 200 207 205 206 198 191 212 221 238 263 294 279 280 297 315 340 349 351 355 1 5 9 11 13 13 14 15 16 18 19 19 20 20 20 20 20 20 19 15 12 12 10 1
202 204 207 205 202 201 211 223 225 231 252 274 279 281 287 306 329 344 348 352 358 2 9 9 11 12 14 15 16 16 17 17 18 17 16 16 16 14 13 9 6 5 3 353
210 207 204 203 204 206 211 220 220 225 239 272 283 291 301 304 323 346 346 348 354 359 4 6 7 8 11 12 13 15 16 16 16 15 13 13 13 12 9 5 3 0 357 351
208 212 210 209 209 207 212 221 219 217 238 259 269 287 295 308 327 330 331 339 348 355 359 2 3 5 7 7 9 11 13 14 15 14 12 11 11 10 7 6 3 360 356 350
211 210 213 211 209 210 212 215 226 251 259 260 259 267 282 304 315 316 323 330 337 350 356 359 1 1 2 4 5 7 10 12 12 10 9 8 7 4 3 2 1 358 353 346
220 218 217 216 210 209 220 209 211 240 259 263 241 248 269 285 295 305 315 326 332 344 352 354 357 359 360 1 1 4 6 8 7 7 6 5 4 1 359 358 357 356 352 347
221 232 230 226 218 209 217 217 212 238 264 271 259 250 261 283 296 299 309 322 325 336 344 347 351 355 356 358 359 359 2 3 3 3 3 2 2 359 357 354 355 354 350 346
204 219 227 233 226 217 212 214 219 228 244 254 263 266 268 274 291 298 302 312 321 327 337 343 343 347 352 354 355 356 358 360 359 360 1 2 0 356 354 353 350 347 345 344
203 211 220 226 228 221 218 214 214 223 230 246 263 262 261 261 277 289 299 306 314 322 329 334 339 342 346 349 352 355 356 357 356 357 358 358 355 353 349 346 345 343 342 340
208 210 217 225 232 227 221 222 222 225 228 229 249 274 272 269 281 284 289 293 302 310 316 324 332 337 340 343 345 351 355 354 352 351 352 351 348 347 345 342 342 344 342 340
212 211 213 217 226 231 224 220 221 228 238 238 242 260 272 273 275 280 285 287 293 300 306 313 320 327 333 337 340 344 349 351 352 350 350 348 345 344 343 340 340 338 337 337
215 215 213 213 223 232 233 226 221 220 227 238 243 253 268 270 269 274 278 283 283 292 299 304 311 319 328 334 336 338 342 344 345 345 345 343 342 342 340 337 334 333 332 332
217 218 216 208 210 222 231 230 226 224 220 228 239 250 260 264 265 271 276 280 282 287 293 297 303 311 318 323 327 331 335 338 339 339 339 340 339 339 337 336 333 329 327 327
219 218 216 213 208 216 224 228 227 228 226 227 232 241 250 254 256 264 272 275 278 283 288 290 296 302 308 313 317 323 327 331 333 334 336 336 336 334 335 334 332 329 324 324
221 220 218 216 213 217 223 225 228 229 229 231 234 240 250 252 256 263 267 270 274 278 283 285 289 295 301 306 310 315 319 324 327 328 331 332 332 332 332 330 329 328 326 324
221 220 220 219 216 223 225 225 228 229 228 230 234 238 243 254 257 260 264 268 271 274 278 283 287 290 295 299 304 308 313 318 321 323 326 328 328 328 327 326 325 325 323 322
222 221 220 219 221 226 226 227 226 230 231 228 232 236 239 246 254 258 261 264 266 271 276 281 284 286 289 293 298 303 307 311 315 318 322 324 324 323 324 323 323 323 322 321
221 222 221 219 219 223 227 228 224 228 233 231 231 236 238 241 248 254 257 262 265 268 272 277 282 284 286 289 292 297 301 305 309 313 316 319 319 319 320 320 320 319 318 318
221 221 221 219 220 223 227 228 226 229 233 234 234 236 240 242 247 254 258 260 262 266 270 275 278 281 284 286 288 292 296 299 303 307 310 313 316 317 317 316 315 315 315 315
223 224 223 219 219 224 227 228 228 232 235 235 237 240 244 247 250 253 256 259 263 267 270 273 276 279 281 284 286 287 291 295 297 301 306 309 311 313 312 313 313 312 312 312
221 223 224 222 221 224 227 229 231 233 236 238 241 243 245 248 250 253 256 259 262 265 269 272 274 278 279 281 284 286 289 292 295 298 302 305 308 309 308 309 311 311 310 309
221 220 222 223 224 226 229 231 233 234 237 240 243 246 248 249 251 253 256 259 261 265 268 271 273 275 278 281 282 284 286 289 292 296 299 303 304 305 306 306 307 307 308 307
224 223 222 223 225 228 231 233 235 237 239 243 245 246 248 250 251 254 256 259 262 265 268 270 272 274 276 279 281 282 284 289 292 294 297 299 301 303 304 304 304 304 305 305
219 222 223 225 227 229 231 233 236 239 241 244 246 247 249 251 253 256 259 261 263 266 268 270 272 273 275 278 280 282 285 288 290 292 296 297 298 300 302 302 302 303 303 303
Height
5936 5939 5942 5945 5947 5949 5951 5952 5952 5953 5952 5952 5951 5949 5948 5946 5944 5941 5939 5936 5935 5932 5930 5928 5925 5923 5921 5918 5916 5914 5912 5910 5908 5907 5905 5904 5903 5902 5901 5900 5900 5899 5899 5899
5936 5939 5942 5944 5946 5948 5951 5953 5954 5954 5952 5952 5952 5950 5948 5947 5945 5943 5941 5938 5936 5934 5931 5929 5927 5925 5922 5920 5918 5916 5914 5911 5910 5908 5907 5905 5904 5903 5902 5901 5900 5900 5899 5899
5934 5940 5941 5943 5945 5948 5951 5953 5953 5954 5953 5953 5953 5951 5949 5947 5945 5944 5942 5940 5937 5935 5933 5930 5928 5926 5923 5921 5919 5917 5915 5913 5911 5909 5908 5907 5905 5904 5903 5902 5901 5900 5899 5899
5932 5936 5939 5942 5945 5947 5951 5951 5951 5952 5952 5952 5953 5950 5947 5945 5945 5943 5942 5940 5938 5936 5934 5932 5930 5927 5925 5923 5921 5918 5916 5914 5912 5910 5909 5908 5906 5905 5904 5902 5901 5900 5899 5899
5930 5933 5936 5939 5943 5946 5948 5949 5950 5951 5952 5952 5952 5951 5947 5944 5943 5943 5943 5941 5939 5937 5935 5933 5931 5929 5927 5925 5922 5920 5918 5916 5914 5912 5910 5909 5907 5906 5904 5903 5901 5900 5899 5899
5928 5931 5934 5937 5940 5943 5945 5947 5948 5949 5951 5952 5951 5952 5947 5943 5942 5943 5944 5943 5941 5939 5937 5935 5932 5930 5928 5926 5924 5922 5919 5917 5915 5913 5911 5909 5908 5906 5905 5903 5902 5900 5899 5898
5924 5928 5931 5934 5938 5941 5943 5946 5948 5949 5951 5951 5951 5951 5949 5946 5945 5944 5944 5943 5941 5940 5938 5936 5934 5931 5929 5927 5925 5923 5920 5918 5916 5914 5912 5910 5908 5907 5905 5903 5902 5900 5899 5898
5921 5925 5928 5931 5935 5939 5941 5944 5947 5949 5950 5949 5949 5949 5948 5946 5945 5944 5944 5943 5941 5940 5938 5936 5934 5932 5930 5928 5926 5923 5921 5919 5917 5915 5913 5911 5909 5907 5905 5903 5902 5900 5899 5897
5921 5924 5927 5928 5931 5935 5939 5941 5945 5948 5948 5948 5947 5946 5945 5945 5944 5944 5943 5942 5940 5939 5938 5937 5935 5933 5931 5928 5926 5924 5922 5920 5918 5916 5914 5911 5909 5907 5905 5903 5902 5900 5898 5897
5917 5921 5924 5926 5928 5931 5935 5939 5943 5944 5946 5946 5946 5945 5944 5943 5943 5943 5942 5941 5939 5938 5938 5936 5934 5933 5931 5929 5927 5925 5922 5920 5919 5917 5914 5912 5909 5907 5905 5903 5901 5899 5898 5896
5911 5916 5920 5923 5924 5928 5931 5935 5938 5941 5943 5945 5945 5944 5941 5940 5941 5941 5940 5940 5939 5938 5937 5935 5934 5932 5931 5929 5927 5925 5923 5921 5919 5917 5915 5912 5910 5907 5905 5903 5900 5899 5897 5895
5905 5911 5915 5919 5922 5924 5928 5931 5935 5937 5939 5941 5942 5943 5937 5937 5939 5940 5938 5937 5936 5936 5935 5934 5933 5932 5930 5929 5926 5925 5923 5921 5919 5917 5914 5912 5909 5907 5904 5902 5899 5897 5895 5894
5900 5904 5909 5914 5919 5920 5922 5927 5931 5935 5937 5938 5940 5941 5936 5935 5936 5937 5936 5936 5934 5935 5934 5933 5932 5931 5929 5928 5926 5924 5922 5920 5918 5916 5914 5911 5909 5906 5903 5901 5898 5896 5894 5892
5893 5897 5903 5910 5914 5917 5918 5922 5926 5930 5933 5935 5937 5936 5934 5934 5933 5934 5934 5933 5933 5932 5932 5931 5931 5930 5928 5927 5925 5924 5922 5920 5918 5915 5913 5910 5907 5905 5902 5899 5897 5894 5892 5890
5886 5891 5896 5902 5907 5912 5914 5917 5920 5924 5928 5932 5933 5933 5932 5931 5930 5930 5930 5931 5931 5931 5930 5930 5929 5929 5927 5926 5924 5923 5921 5919 5917 5914 5911 5908 5905 5903 5900 5897 5894 5892 5890 5888
5879 5884 5890 5895 5900 5905 5909 5912 5916 5919 5922 5925 5927 5928 5926 5925 5926 5927 5927 5927 5928 5928 5928 5928 5927 5927 5926 5924 5923 5921 5919 5917 5915 5913 5910 5907 5904 5900 5897 5894 5891 5889 5888 5886
5873 5878 5884 5889 5895 5898 5902 5907 5911 5914 5917 5920 5921 5922 5920 5920 5921 5922 5923 5924 5925 5924 5924 5924 5924 5924 5923 5922 5921 5919 5917 5915 5913 5910 5908 5905 5902 5898 5895 5892 5889 5887 5885 5883
5867 5872 5877 5883 5889 5892 5898 5902 5905 5907 5910 5913 5915 5916 5915 5915 5916 5918 5919 5920 5920 5921 5921 5921 5921 5920 5920 5919 5918 5916 5914 5912 5910 5907 5905 5902 5899 5896 5893 5890 5887 5884 5882 5880
5860 5866 5871 5877 5881 5886 5891 5894 5898 5901 5903 5906 5909 5910 5910 5911 5912 5913 5914 5915 5916 5916 5917 5917 5917 5916 5916 5915 5914 5912 5911 5909 5907 5904 5901 5898 5895 5893 5890 5887 5884 5881 5879 5877
5854 5859 5866 5870 5875 5880 5885 5887 5891 5895 5896 5899 5901 5903 5904 5906 5907 5907 5908 5910 5911 5911 5911 5912 5912 5912 5911 5911 5910 5908 5907 5905 5903 5900 5898 5895 5892 5889 5886 5883 5881 5878 5876 5873
5847 5852 5857 5863 5869 5874 5877 5880 5884 5888 5889 5892 5894 5896 5898 5900 5901 5902 5902 5903 5905 5904 5906 5907 5907 5907 5906 5906 5905 5903 5902 5900 5898 5896 5893 5891 5888 5885 5882 5880 5877 5874 5872 5869
5842 5846 5851 5856 5863 5868 5869 5873 5876 5878 5881 5883 5886 5889 5891 5893 5895 5896 5896 5897 5899 5900 5901 5901 5901 5901 5901 5900 5899 5898 5896 5894 5893 5891 5889 5886 5883 5881 5878 5875 5872 5869 5867 5864
5834 5840 5844 5849 5855 5857 5860 5864 5867 5871 5873 5876 5879 5882 5884 5886 5888 5889 5890 5891 5893 5894 5895 5895 5895 5895 5894 5894 5893 5892 5891 5889 5887 5885 5883 5880 5878 5875 5873 5870 5867 5864 5861 5859
5825 5830 5836 5841 5845 5849 5852 5856 5860 5863 5866 5869 5872 5875 5877 5879 5881 5882 5884 5885 5886 5887 5888 5888 5888 5888 5888 5887 5886 5885 5884 5882 5881 5879 5876 5874 5871 5869 5866 5864 5861 5858 5855 5853
5817 5822 5826 5832 5836 5840 5843 5847 5852 5855 5859 5862 5865 5867 5869 5871 5873 5875 5876 5878 5879 5880 5880 5880 5880 5880 5880 5879 5878 5877 5876 5875 5873 5871 5869 5867 5865 5862 5860 5857 5854 5851 5849 5846
5807 5813 5818 5823 5827 5831 5835 5838 5843 5847 5851 5854 5857 5859 5861 5863 5865 5867 5868 5870 5871 5871 5872 5872 5872 5872 5872 5871 5870 5869 5868 5867 5865 5864 5862 5859 5857 5855 5852 5850 5847 5844 5842 5839